This demonstration page uses our WeatherBlox Daily Observations layout. Learn more.

Hourly Observations for July 24, 2015

Temp ( °F °C ) Dew Point ( °F °C ) Humidity (%) Winds ( mph kmh ) Pressure ( in mb ) Visibility ( mi km ) Precip ( " mm )
12:15 am 00:15 Clear 77 25.2 58 14.3 51 51 S 7 11 29.8 1009 10 16.0934 0 0
12:35 am 00:35 Clear 76 24.6 58 14.7 54 54 SSW 7 11 29.8 1009 10 16.0934 0 0
12:55 am 00:55 Clear 75 24 60 15.4 59 59 S 7 11 29.8 1009 10 16.0934 0 0
1:15 am 01:15 Clear 75 23.7 61 16.2 63 63 S 7 11 29.8 1009 10 16.0934 0 0
1:35 am 01:35 Clear 74 23.3 63 17 68 68 S 5 7 29.8 1009 10 16.0934 0 0
1:55 am 01:55 Clear 74 23.2 64 17.5 70 70 S 5 7 29.8 1009 10 16.0934 0 0
2:15 am 02:15 Clear 73 22.5 64 18 76 76 S 3 6 29.8 1009 10 16.0934 0 0
2:35 am 02:35 Clear 72 22.2 64 17.8 76 76 Calm 29.83 1010 10 16.0934 0 0
2:55 am 02:55 Clear 71 21.7 63 17.2 76 76 SW 3 6 29.83 1010 10 16.0934 0 0
3:15 am 03:15 Clear 72 22.2 60 15.7 67 67 S 5 7 29.83 1010 10 16.0934 0 0
3:35 am 03:35 Clear 70 20.9 61 16.1 74 74 SW 5 7 29.83 1010 10 16.0934 0 0
3:55 am 03:55 Clear 68 20.1 61 16.2 78 78 Calm 29.83 1010 10 16.0934 0 0
4:15 am 04:15 Clear 67 19.5 62 16.5 83 83 Calm 29.83 1010 10 16.0934 0 0
4:35 am 04:35 Clear 65 18.5 62 16.6 89 89 Calm 29.83 1010 10 16.0934 0 0
4:55 am 04:55 Clear 65 18.3 61 16.1 87 87 Calm 29.88 1012 10 16.0934 0 0
5:15 am 05:15 Clear 66 19 62 16.5 86 86 SSW 6 9 29.83 1010 10 16.0934 0 0
5:35 am 05:35 Clear 68 19.9 59 15.2 74 74 SSW 7 11 29.85 1011 10 16.0934 0 0
5:55 am 05:55 Clear 67 19.5 59 14.8 74 74 SW 6 9 29.83 1010 10 16.0934 0 0
6:15 am 06:15 Clear 67 19.5 58 14.5 73 73 Calm 29.85 1011 10 16.0934 0 0
6:35 am 06:35 Sunny 69 20.5 58 14.6 69 69 SW 5 7 29.85 1011 10 16.0934 0 0
6:55 am 06:55 Sunny 68 20.2 59 14.9 72 72 Calm 29.85 1011 10 16.0934 0 0
7:15 am 07:15 Sunny 70 21.1 61 15.9 72 72 SSW 5 7 29.85 1011 10 16.0934 0 0
7:35 am 07:35 Sunny 71 21.6 63 17 75 75 W 3 6 29.85 1011 10 16.0934 0 0
7:55 am 07:55 Sunny 74 23.4 65 18.3 73 73 WSW 3 6 29.83 1010 10 16.0934 0 0
8:15 am 08:15 Sunny 76 24.5 66 19.1 72 72 SW 7 11 29.83 1010 10 16.0934 0 0
8:35 am 08:35 Sunny 77 25.1 67 19.6 72 72 SW 6 9 29.83 1010 10 16.0934 0 0
8:55 am 08:55 Sunny 79 26 68 20 70 70 SW 8 13 29.83 1010 10 16.0934 0 0
9:15 am 09:15 Sunny 80 26.7 68 20.2 68 68 SW 8 13 29.83 1010 10 16.0934 0 0
9:35 am 09:35 Sunny 80 26.9 69 20.3 67 67 WSW 8 13 29.83 1010 10 16.0934 0 0
9:55 am 09:55 Sunny 81 27 70 21 70 70 N 6 9 29.83 1010 10 16.0934 0 0
10:15 am 10:15 Sunny 81 27.4 70 21 68 68 Calm 29.83 1010 10 16.0934 0 0
10:35 am 10:35 Sunny 81 27.1 70 21.2 70 70 NNE 5 7 29.83 1010 10 16.0934 0 0
10:55 am 10:55 Sunny 82 27.5 69 20.5 66 66 NNE 5 7 29.83 1010 10 16.0934 0 0
11:15 am 11:15 Sunny 82 27.8 69 20.5 65 65 NE 5 7 29.83 1010 10 16.0934 0 0
11:35 am 11:35 Sunny 83 28.3 69 20.6 63 63 Calm 29.85 1011 10 16.0934 0 0
11:55 am 11:55 Sunny 84 28.7 69 20.6 62 62 Calm 29.83 1010 10 16.0934 0 0
12:15 pm 12:15 Sunny 85 29.4 70 21.2 61 61 NE 3 6 29.83 1010 10 16.0934 0 0
12:35 pm 12:35 Sunny 86 30 71 21.5 60 60 ESE 5 7 29.83 1010 10 16.0934 0 0
12:55 pm 12:55 Sunny 86 30.1 71 21.7 61 61 SSE 3 6 29.83 1010 10 16.0934 0 0
1:15 pm 13:15 Sunny 87 30.7 72 22.2 61 61 Calm 29.8 1009 10 16.0934 0 0
1:35 pm 13:35 Sunny 88 30.9 72 22.3 60 60 N 5 7 29.8 1009 10 16.0934 0 0
1:55 pm 13:55 Sunny 89 31.5 72 22.4 58 58 Calm 29.8 1009 10 16.0934 0 0
2:15 pm 14:15 Sunny 88 31.3 72 22.4 59 59 N 5 7 29.8 1009 10 16.0934 0 0
2:35 pm 14:35 Sunny 87 30.5 73 22.8 63 63 N 5 7 29.8 1009 10 16.0934 0 0
2:55 pm 14:55 Sunny 86 29.8 75 23.7 70 70 N 6 9 29.83 1010 10 16.0934 0 0
3:15 pm 15:15 Sunny 85 29.5 75 23.7 71 71 N 8 13 29.83 1010 10 16.0934 0 0
3:35 pm 15:35 Sunny 85 29.7 74 23.6 70 70 NNE 9 15 29.83 1010 10 16.0934 0 0
3:55 pm 15:55 Sunny 86 30.2 74 23.2 66 66 NE 7 11 29.83 1010 10 16.0934 0 0
4:15 pm 16:15 Sunny 90 32 74 23.2 60 60 NNE 12 19 29.8 1009 10 16.0934 0 0
4:35 pm 16:35 Sunny 89 31.9 68 20.1 50 50 NE 17 28 29.8 1009 10 16.0934 0 0
4:55 pm 16:55 Sunny 89 31.6 69 20.6 52 52 NE 15 24 29.8 1009 10 16.0934 0 0
5:15 pm 17:15 Sunny 88 30.9 67 19.7 51 51 NE 15 24 29.8 1009 10 16.0934 0 0
5:35 pm 17:35 Sunny 85 29.3 69 20.4 59 59 ENE 12 19 29.83 1010 10 16.0934 0 0
5:55 pm 17:55 Sunny 83 28.3 68 20 61 61 ENE 12 19 29.8 1009 10 16.0934 0 0
6:15 pm 18:15 Sunny 82 28 68 20.2 63 63 ENE 13 20 29.8 1009 10 16.0934 0 0
6:35 pm 18:35 Sunny 82 28 68 20.2 63 63 ENE 12 19 29.8 1009 10 16.0934 0 0
6:55 pm 18:55 Sunny with Nearby Thunderstorms 83 28.5 68 20.2 61 61 E 13 20 29.8 1009 10 16.0934 0 0
7:15 pm 19:15 Sunny 82 28 68 20.1 62 62 E 8 13 29.8 1009 10 16.0934 0 0
7:35 pm 19:35 Sunny 82 27.7 68 20 63 63 E 9 15 29.77 1008 10 16.0934 0 0
7:55 pm 19:55 Sunny with Nearby Thunderstorms 81 27.2 69 20.3 66 66 E 8 13 29.77 1008 10 16.0934 0 0
8:15 pm 20:15 Sunny 81 27 68 20 66 66 SE 6 9 29.8 1009 10 16.0934 0 0
8:35 pm 20:35 Sunny with Nearby Thunderstorms 80 26.6 68 20.2 68 68 S 12 19 29.83 1010 10 16.0934 0 0
8:55 pm 20:55 Sunny 80 26.5 68 19.9 67 67 S 9 15 29.85 1011 10 16.0934 0 0
9:15 pm 21:15 Partly Cloudy 80 26.5 68 20 68 68 S 9 15 29.85 1011 10 16.0934 0 0
9:35 pm 21:35 Partly Cloudy with Nearby Thunderstorms 79 26.1 64 18 61 61 SSW 13 20 29.88 1012 10 16.0934 0 0
9:55 pm 21:55 Clear with Nearby Thunderstorms 78 25.6 64 18 63 63 NW 14 22 29.94 1014 10 16.0934 0 0
10:15 pm 22:15 Clear with Nearby Thunderstorms 73 22.8 64 17.6 73 73 NNW 12 19 29.97 1015 10 16.0934 0 0
10:35 pm 22:35 Clear 72 22.2 65 18.3 79 79 NE 9 15 29.97 1015 10 16.0934 0 0
10:55 pm 22:55 Clear with Nearby Thunderstorms 71 21.8 66 18.8 83 83 Calm 29.97 1015 10 16.0934 0 0
11:15 pm 23:15 Partly Cloudy with Light Rain 71 21.7 66 18.7 83 83 ESE 5 7 29.94 1014 10 16.0934 0 0
11:35 pm 23:35 Clear 70 21.1 66 18.7 86 86 ENE 5 7 29.94 1014 10 16.0934 0 0
11:55 pm 23:55 Clear 69 20.5 65 18.6 89 89 ESE 7 11 29.91 1013 10 16.0934 0 0

Powered by AerisWeather